Weather History for Aswan, Egypt

Change the Weather History Date:

Wednesday, September 11, 2013

  Actual Average Record
Temperature  
Mean Temperature 88 °F -  
Max Temperature 100 °F 98 °F 113 °F (1998)
Min Temperature 76 °F 75 °F 68 °F (2005)
Cooling Degree Days 23    
Growing Degree Days 38 (Base 50)    
Moisture  
Dew Point 40 °F    
Average Humidity 18    
Maximum Humidity 28    
Minimum Humidity 6    
Precipitation  
Precipitation 0.00 in 0.00 in - ()
Sea Level Pressure  
Sea Level Pressure 29.82 in    
Wind  
Wind Speed 6 mph ()    
Max Wind Speed 13 mph    
Max Gust Speed -    
Visibility 6.0 miles    
Events      
Averages and records for this station are not official NWS values.
T = Trace of Precipitation, MM = Missing Value Source: Averaged Metar Reports

Daily Weather History Graph

Daily Weather History Graph

Search for Another Location

Airport:

Trip Planner

Search our weather history database for the weather conditions in past years. The results will help you decide how hot, cold, wet, or windy it might be!

Date:

Astronomy

Sep. 11, 2013 Rise Set
Actual Time 5:33 AM EET 5:56 PM EET
Civil Twilight 5:10 AM EET 6:19 PM EET
Nautical Twilight 4:44 AM EET 6:45 PM EET
Astronomical Twilight 4:17 AM EET 7:12 PM EET
Moon 11:00 AM EET (9/11) 10:15 PM EET (9/11)
Length of Visible Light 13h 08m
Length of Day
12h 22m
Waxing Crescent, 36% of the Moon is Illuminated
Sep 11
Waxing Crescent
Sep 12
First Quarter
Sep 19
Full
Sep 27
Last Quarter
Oct 5
New

Hourly Weather History & Observations

Time (EET) Temp. Dew Point Humidity Pressure Visibility Wind Dir Wind Speed Gust Speed Precip Events Conditions
12:00 AM 84.2 °F 37.4 °F 19% 29.86 in - NNW 5.8 mph - N/A   Clear
1:00 AM 82.4 °F 39.2 °F 21% 29.86 in - NNW 5.8 mph - N/A   Clear
2:00 AM 81 °F 41 °F 15% 29.82 in 6 mi NNW 6.9 mph - -  
2:00 AM 80.6 °F 41.0 °F 24% 29.83 in - NNW 6.9 mph - N/A   Clear
3:00 AM 80.6 °F 39.2 °F 23% 29.83 in - NNW 6.9 mph - N/A   Clear
4:00 AM 78.8 °F 39.2 °F 24% 29.83 in - WNW 9.2 mph - N/A   Clear
5:00 AM 77.0 °F 37.4 °F 24% 29.83 in - North 6.9 mph - N/A   Clear
6:00 AM 77.0 °F 41.0 °F 28% 29.83 in - North 6.9 mph - N/A   Clear
7:00 AM 78.8 °F 41.0 °F 26% 29.83 in - North 4.6 mph - N/A   Clear
8:00 AM 82 °F 38 °F 12% 29.84 in 6 mi North 3.5 mph - -  
8:00 AM 82.4 °F 39.2 °F 21% 29.86 in - North 3.5 mph - N/A   Clear
9:00 AM 89.6 °F 41.0 °F 18% 29.89 in - North 10.4 mph - N/A   Clear
10:00 AM 91.4 °F 42.8 °F 18% 29.89 in - North 9.2 mph - N/A   Clear
11:00 AM 93.2 °F 42.8 °F 17% 29.86 in - North 8.1 mph - N/A   Clear
12:00 PM 96.8 °F 37.4 °F 13% 29.83 in - North 9.2 mph - N/A   Clear
1:00 PM 98.6 °F 39.2 °F 13% 29.80 in - NNW 10.4 mph - N/A   Clear
2:00 PM 99 °F 39 °F 6% 29.75 in 6 mi North 12.7 mph - -  
2:00 PM 98.6 °F 39.2 °F 13% 29.80 in - North 12.7 mph - N/A   Clear
3:00 PM 100.4 °F 39.2 °F 12% 29.77 in - North 9.2 mph - N/A   Clear
4:00 PM 100.4 °F 41.0 °F 13% 29.77 in - North 9.2 mph - N/A   Clear
5:00 PM 98.6 °F 39.2 °F 13% 29.77 in - North 11.5 mph - N/A   Clear
6:00 PM 95.0 °F 42.8 °F 16% 29.77 in - NNE 6.9 mph - N/A   Clear
7:00 PM 93.2 °F 42.8 °F 17% 29.80 in - NNE 5.8 mph - N/A   Clear
8:00 PM 90 °F 44 °F 12% 29.79 in 6 mi NNE 4.6 mph - -  
8:00 PM 91.4 °F 44.6 °F 20% 29.83 in - NNE 4.6 mph - N/A   Clear
9:00 PM 87.8 °F 42.8 °F 21% 29.83 in - North 2.3 mph - N/A   Clear
10:00 PM 86.0 °F 41.0 °F 20% 29.83 in - NW 4.6 mph - N/A   Clear
11:00 PM 86.0 °F 30.2 °F 13% 29.83 in - WNW 11.5 mph - N/A   Clear